Weather History for Kaneohe MCBH, HI

Change the Weather History Date:

Friday, April 26, 2013

  Actual Average Record
Temperature  
Mean Temperature 76 °F -  
Max Temperature 81 °F 76 °F 81 °F (2007)
Min Temperature 71 °F 68 °F 66 °F (2008)
Cooling Degree Days 11    
Growing Degree Days 26 (Base 50)    
Moisture  
Dew Point 66 °F    
Average Humidity 72    
Maximum Humidity 88    
Minimum Humidity 54    
Precipitation  
Precipitation 0.00 in - - ()
Sea Level Pressure  
Sea Level Pressure 30.03 in    
Wind  
Wind Speed 7 mph (East)    
Max Wind Speed 12 mph    
Max Gust Speed 21 mph    
Visibility 9 miles    
Events Rain    
Averages and records for this station are not official NWS values.
T = Trace of Precipitation, MM = Missing Value Source: NWS Daily Summary

Daily Weather History Graph

Daily Weather History Graph

Search for Another Location

Airport:

Trip Planner

Search our weather history database for the weather conditions in past years. The results will help you decide how hot, cold, wet, or windy it might be!

Date:

Astronomy

Apr. 26, 2013 Rise Set
Actual Time 6:03 AM HST 6:54 PM HST
Civil Twilight 5:39 AM HST 7:17 PM HST
Nautical Twilight 5:12 AM HST 7:45 PM HST
Astronomical Twilight 4:45 AM HST 8:12 PM HST
Moon 8:19 PM HST (4/26) 6:47 AM HST (4/26)
Length of Visible Light 13h 37m
Length of Day
12h 51m
Full, 98% of the Moon is Illuminated
Apr 26
Full
May 2
Last Quarter
May 9
New
May 17
First Quarter
May 24
Full

Hourly Weather History & Observations

Time (HST) Temp. Heat Index Dew Point Humidity Pressure Visibility Wind Dir Wind Speed Gust Speed Precip Events Conditions
12:07 AM 71.6 °F - 68.0 °F 88% 30.08 in 6.2 mi East 6.9 mph - N/A   Scattered Clouds
12:57 AM 71.6 °F - 68.0 °F 88% 30.05 in 10.0 mi Variable 4.6 mph - N/A   Scattered Clouds
1:57 AM - - - N/A% 30.04 in 10.0 mi East 6.9 mph - N/A   Mostly Cloudy
2:57 AM 71.6 °F - 68.0 °F 88% 30.02 in 10.0 mi East 5.8 mph - N/A   Mostly Cloudy
3:57 AM 71.6 °F - 68.0 °F 88% 30.02 in 10.0 mi East 9.2 mph - N/A   Mostly Cloudy
4:32 AM - - - N/A% 30.03 in 6.2 mi ENE 5.8 mph - N/A   Scattered Clouds
4:57 AM 71.6 °F - 68.0 °F 88% 30.02 in - East 8.1 mph - N/A   Mostly Cloudy
5:04 AM - - - N/A% 30.03 in 6.2 mi Variable 4.6 mph - N/A   Scattered Clouds
5:17 AM 71.6 °F - 66.2 °F 83% 30.04 in 6.2 mi ENE 6.9 mph - N/A   Mostly Cloudy
5:50 AM 71.6 °F - 66.2 °F 83% 30.04 in 6.2 mi ENE 6.9 mph - N/A   Scattered Clouds
5:57 AM 71.6 °F - 66.9 °F 85% 30.02 in 10.0 mi East 5.8 mph - 0.00 in Rain Light Rain
6:04 AM 73.4 °F - 66.2 °F 78% 30.04 in 6.2 mi East 8.1 mph - 0.00 in Rain Light Rain
6:57 AM 73.4 °F - 66.0 °F 78% 30.04 in 10.0 mi East 8.1 mph - 0.00 in   Partly Cloudy
7:57 AM 73.4 °F - 66.9 °F 80% 30.05 in 10.0 mi East 6.9 mph - N/A   Mostly Cloudy
8:08 AM 73.4 °F - 66.2 °F 78% 30.07 in 6.2 mi ENE 6.9 mph - N/A   Scattered Clouds
8:57 AM 73.4 °F - 66.9 °F 80% 30.06 in 10.0 mi East 9.2 mph 16.1 mph N/A   Scattered Clouds
9:57 AM 79.3 °F - 66.0 °F 64% 30.06 in 10.0 mi East 11.5 mph 18.4 mph N/A   Scattered Clouds
10:57 AM 80.4 °F 82.2 °F 64.9 °F 59% 30.06 in 10.0 mi East 10.4 mph 18.4 mph N/A   Scattered Clouds
11:57 AM 81.1 °F 83.2 °F 66.0 °F 60% 30.05 in 10.0 mi East 9.2 mph 20.7 mph N/A   Scattered Clouds
12:57 PM 81.1 °F 83.2 °F 66.0 °F 60% 30.04 in 10.0 mi East 11.5 mph 19.6 mph N/A   Scattered Clouds
1:57 PM 81.5 °F 82.9 °F 64.0 °F 55% 30.01 in 10.0 mi East 11.5 mph 18.4 mph N/A   Scattered Clouds
2:57 PM 80.4 °F 82.0 °F 64.0 °F 57% 30.00 in 10.0 mi East 9.2 mph 16.1 mph N/A   Scattered Clouds
3:57 PM 78.8 °F - 61.0 °F 54% 30.00 in 10.0 mi East 8.1 mph 16.1 mph N/A   Scattered Clouds
4:57 PM 79.5 °F - 63.0 °F 57% 29.99 in 10.0 mi East 10.4 mph - N/A   Scattered Clouds
5:57 PM 76.8 °F - 64.0 °F 65% 30.00 in 10.0 mi East 6.9 mph - N/A   Scattered Clouds
6:00 PM - - - N/A% - - North - - N/A   Unknown
6:27 PM - - - N/A% - - North - - N/A   Unknown
6:57 PM 75.7 °F - 64.9 °F 69% 30.01 in 10.0 mi Variable 6.9 mph - N/A   Scattered Clouds
7:57 PM 75.4 °F - 64.9 °F 70% 30.02 in 10.0 mi East 6.9 mph - N/A   Scattered Clouds
8:57 PM 75.4 °F - 63.0 °F 65% 30.03 in 10.0 mi Variable 5.8 mph 17.3 mph N/A   Scattered Clouds
9:57 PM 75.0 °F - 64.9 °F 71% 30.04 in 10.0 mi East 4.6 mph 16.1 mph N/A   Partly Cloudy
10:57 PM 75.0 °F - 64.0 °F 69% 30.04 in 10.0 mi East 6.9 mph - N/A   Mostly Cloudy
11:57 PM 74.8 °F - 64.0 °F 69% 30.04 in 10.0 mi ESE 5.8 mph - N/A   Clear